• en Belgique
  • Liste des pays
  • À 7 jours
  • Température de l'eau
  • Carte satellitaire
  • Carte météo
  • Widgets météo
  • user-avatar
    Se connecter

    Météo par heure à Cairns

    Ce jour, 25 Avril, Mercredi

    Heure Température Précipitation Vent Pression Humidité
    00:00 +20°C° 0 mm 4 m/s 759 mmHg 91%
    01:00 +19°C° 0 mm 4 m/s 759 mmHg 92%
    02:00 +19°C° 0 mm 4 m/s 759 mmHg 93%
    03:00 +19°C° 0 mm 3 m/s 758 mmHg 94%
    04:00 +20°C° 0 mm 3 m/s 758 mmHg 93%
    05:00 +20°C° 0 mm 3 m/s 758 mmHg 93%
    06:00 +20°C° 0 mm 3 m/s 758 mmHg 93%
    07:00 +20°C° 0 mm 3 m/s 758 mmHg 93%
    08:00 +22°C° 0 mm 3 m/s 758 mmHg 81%
    09:00 +26°C° 0 mm 4 m/s 758 mmHg 68%
    10:00 +29°C° 0 mm 4 m/s 759 mmHg 56%
    11:00 +30°C° 0 mm 4 m/s 758 mmHg 53%
    12:00 +32°C° 0 mm 4 m/s 758 mmHg 49%
    13:00 +32°C° 0 mm 4 m/s 757 mmHg 46%
    14:00 +32°C° 0 mm 4 m/s 757 mmHg 47%
    15:00 +32°C° 0 mm 4 m/s 757 mmHg 49%
    16:00 +30°C° 0 mm 4 m/s 757 mmHg 53%
    17:00 +27°C° 0 mm 4 m/s 757 mmHg 63%
    18:00 +25°C° 0 mm 3 m/s 758 mmHg 73%
    19:00 +22°C° 0 mm 3 m/s 758 mmHg 83%
    20:00 +21°C° 0 mm 3 m/s 758 mmHg 83%
    21:00 +20°C° 0 mm 3 m/s 759 mmHg 84%
    22:00 +20°C° 0 mm 3 m/s 759 mmHg 85%
    23:00 +20°C° 0 mm 2 m/s 759 mmHg 83%

    Demain, 26 Avril, Jeudi

    Heure Température Précipitation Vent Pression Humidité
    00:00 +19°C° 0 mm 2 m/s 759 mmHg 81%
    01:00 +19°C° 0 mm 2 m/s 759 mmHg 80%
    02:00 +19°C° 0 mm 2 m/s 759 mmHg 81%
    03:00 +19°C° 0 mm 2 m/s 758 mmHg 82%
    04:00 +19°C° 0 mm 2 m/s 758 mmHg 84%
    05:00 +19°C° 0 mm 2 m/s 759 mmHg 85%
    06:00 +19°C° 0 mm 2 m/s 759 mmHg 87%
    07:00 +19°C° 0 mm 2 m/s 759 mmHg 88%
    08:00 +23°C° 0 mm 2 m/s 759 mmHg 78%
    09:00 +26°C° 0 mm 2 m/s 759 mmHg 67%
    10:00 +29°C° 0 mm 3 m/s 759 mmHg 56%
    11:00 +30°C° 0 mm 3 m/s 759 mmHg 52%
    12:00 +31°C° 0 mm 3 m/s 759 mmHg 47%
    13:00 +33°C° 0 mm 3 m/s 758 mmHg 43%
    14:00 +32°C° 0 mm 4 m/s 758 mmHg 44%
    15:00 +32°C° 0 mm 4 m/s 758 mmHg 46%
    16:00 +32°C° 0 mm 4 m/s 758 mmHg 47%
    17:00 +28°C° 0 mm 4 m/s 758 mmHg 56%
    18:00 +25°C° 0 mm 3 m/s 758 mmHg 65%
    19:00 +21°C° 0 mm 3 m/s 759 mmHg 75%
    20:00 +21°C° 0 mm 3 m/s 759 mmHg 72%
    21:00 +20°C° 0 mm 3 m/s 760 mmHg 70%
    22:00 +20°C° 0 mm 3 m/s 760 mmHg 68%
    23:00 +20°C° 0 mm 2 m/s 760 mmHg 66%

    Après-demain, 27 Avril, Vendredi

    Heure Température Précipitation Vent Pression Humidité
    00:00 +19°C° 0 mm 2 m/s 760 mmHg 64%
    01:00 +19°C° 0 mm 2 m/s 759 mmHg 63%
    02:00 +19°C° 0 mm 2 m/s 759 mmHg 64%
    03:00 +19°C° 0 mm 2 m/s 759 mmHg 66%
    04:00 +19°C° 0 mm 2 m/s 759 mmHg 68%
    05:00 +19°C° 0 mm 2 m/s 759 mmHg 71%
    06:00 +19°C° 0 mm 3 m/s 759 mmHg 75%
    07:00 +19°C° 0 mm 3 m/s 759 mmHg 78%
    08:00 +22°C° 0 mm 3 m/s 760 mmHg 70%
    09:00 +26°C° 0 mm 3 m/s 760 mmHg 61%
    10:00 +29°C° 0 mm 3 m/s 760 mmHg 53%
    11:00 +30°C° 0 mm 4 m/s 760 mmHg 49%
    12:00 +32°C° 0 mm 4 m/s 759 mmHg 45%
    13:00 +33°C° 0 mm 4 m/s 759 mmHg 41%
    14:00 +32°C° 0 mm 4 m/s 759 mmHg 43%
    15:00 +32°C° 0 mm 5 m/s 758 mmHg 44%
    16:00 +30°C° 0 mm 5 m/s 758 mmHg 45%
    17:00 +28°C° 0 mm 4 m/s 758 mmHg 54%
    18:00 +25°C° 0 mm 4 m/s 759 mmHg 63%
    19:00 +21°C° 0 mm 4 m/s 759 mmHg 72%
    20:00 +21°C° 0 mm 3 m/s 760 mmHg 70%
    21:00 +20°C° 0 mm 3 m/s 760 mmHg 68%
    22:00 +20°C° 0 mm 3 m/s 760 mmHg 65%
    23:00 +20°C° 0 mm 3 m/s 760 mmHg 64%

    28 Avril, Samedi

    Heure Température Précipitation Vent Pression Humidité
    00:00 +19°C° 0 mm 3 m/s 760 mmHg 62%
    01:00 +19°C° 0 mm 3 m/s 759 mmHg 60%
    02:00 +19°C° 0 mm 3 m/s 759 mmHg 62%
    03:00 +19°C° 0 mm 3 m/s 759 mmHg 65%
    04:00 +19°C° 0 mm 3 m/s 758 mmHg 67%
    05:00 +19°C° 0 mm 3 m/s 759 mmHg 70%
    06:00 +19°C° 0 mm 3 m/s 759 mmHg 74%
    07:00 +19°C° 0 mm 3 m/s 760 mmHg 77%
    08:00 +22°C° 0 mm 4 m/s 760 mmHg 71%
    09:00 +26°C° 0 mm 4 m/s 760 mmHg 66%
    10:00 +28°C° 0 mm 5 m/s 760 mmHg 60%
    11:00 +29°C° 0 mm 5 m/s 760 mmHg 58%
    12:00 +30°C° 0 mm 5 m/s 759 mmHg 57%
    13:00 +32°C° 0 mm 5 m/s 759 mmHg 55%
    14:00 +30°C° 0 mm 5 m/s 758 mmHg 57%
    15:00 +29°C° 0 mm 5 m/s 758 mmHg 59%
    16:00 +29°C° 0 mm 6 m/s 757 mmHg 62%
    17:00 +27°C° 0,1 mm 5 m/s 758 mmHg 71%
    18:00 +25°C° 0,1 mm 5 m/s 758 mmHg 80%
    19:00 +22°C° 0,1 mm 5 m/s 759 mmHg 89%
    20:00 +22°C° 0,1 mm 5 m/s 759 mmHg 91%
    21:00 +21°C° 0,1 mm 4 m/s 760 mmHg 93%
    22:00 +21°C° 0,1 mm 4 m/s 760 mmHg 96%
    23:00 +21°C° 0,1 mm 4 m/s 760 mmHg 96%

    29 Avril, Dimanche

    Heure Température Précipitation Vent Pression Humidité
    00:00 +21°C° 0,1 mm 4 m/s 759 mmHg 96%
    01:00 +21°C° 0,1 mm 4 m/s 759 mmHg 96%
    02:00 +21°C° 0,2 mm 4 m/s 759 mmHg 96%
    03:00 +21°C° 0,2 mm 4 m/s 758 mmHg 97%
    04:00 +21°C° 0,2 mm 4 m/s 758 mmHg 97%
    05:00 +21°C° 0,2 mm 4 m/s 758 mmHg 97%
    06:00 +21°C° 0,2 mm 5 m/s 759 mmHg 96%
    07:00 +21°C° 0,2 mm 5 m/s 759 mmHg 96%
    08:00 +23°C° 0,2 mm 5 m/s 760 mmHg 87%
    09:00 +26°C° 0,2 mm 6 m/s 760 mmHg 78%
    10:00 +28°C° 0,2 mm 6 m/s 760 mmHg 68%
    11:00 +29°C° 0,2 mm 6 m/s 760 mmHg 66%
    12:00 +29°C° 0,2 mm 6 m/s 759 mmHg 64%
    13:00 +30°C° 0,2 mm 6 m/s 759 mmHg 62%
    14:00 +29°C° 0,2 mm 6 m/s 758 mmHg 65%
    15:00 +29°C° 0,2 mm 6 m/s 758 mmHg 67%
    16:00 +28°C° 0,2 mm 6 m/s 758 mmHg 70%
    17:00 +27°C° 0,2 mm 6 m/s 759 mmHg 78%
    18:00 +25°C° 0,2 mm 5 m/s 759 mmHg 86%
    19:00 +22°C° 0,2 mm 5 m/s 760 mmHg 93%
    20:00 +22°C° 0,3 mm 5 m/s 760 mmHg 94%
    21:00 +22°C° 0,3 mm 5 m/s 760 mmHg 95%
    22:00 +22°C° 0,3 mm 5 m/s 761 mmHg 96%
    23:00 +22°C° 0,4 mm 5 m/s 760 mmHg 96%

    30 Avril, Lundi

    Heure Température Précipitation Vent Pression Humidité
    00:00 +22°C° 0,4 mm 5 m/s 760 mmHg 96%
    01:00 +22°C° 0,4 mm 4 m/s 760 mmHg 96%
    02:00 +22°C° 0,3 mm 5 m/s 759 mmHg 96%
    03:00 +22°C° 0,3 mm 5 m/s 759 mmHg 96%
    04:00 +22°C° 0,3 mm 5 m/s 759 mmHg 96%
    05:00 +22°C° 0,4 mm 5 m/s 759 mmHg 96%
    06:00 +22°C° 0,4 mm 5 m/s 760 mmHg 96%
    07:00 +22°C° 0,4 mm 5 m/s 760 mmHg 96%
    08:00 +23°C° 0,4 mm 5 m/s 761 mmHg 90%
    09:00 +26°C° 0,4 mm 5 m/s 761 mmHg 84%
    10:00 +27°C° 0,4 mm 5 m/s 761 mmHg 79%
    11:00 +28°C° 0,5 mm 6 m/s 761 mmHg 78%
    12:00 +28°C° 0,5 mm 6 m/s 760 mmHg 77%
    13:00 +28°C° 0,5 mm 6 m/s 759 mmHg 76%
    14:00 +28°C° 0,4 mm 6 m/s 759 mmHg 78%
    15:00 +27°C° 0,4 mm 6 m/s 759 mmHg 81%
    16:00 +27°C° 0,4 mm 6 m/s 759 mmHg 83%
    17:00 +26°C° 0,3 mm 5 m/s 760 mmHg 86%
    18:00 +25°C° 0,3 mm 5 m/s 760 mmHg 90%
    19:00 +23°C° 0,3 mm 5 m/s 761 mmHg 94%
    20:00 +23°C° 0,3 mm 5 m/s 761 mmHg 94%
    21:00 +23°C° 0,3 mm 5 m/s 761 mmHg 94%
    22:00 +23°C° 0,3 mm 6 m/s 761 mmHg 94%
    23:00 +23°C° 0,3 mm 6 m/s 761 mmHg 94%
    Voir plus